Location: Zagreb
(45.8000°N, 16.0000°E)
Time: 14:36:50
(UTC+02:00)

Vanguard 1 - Pass Details

Date: 12 August 2022
Orbit: 649 x 3832 km, 34.2° (Epoch: 25 September)

Event Time Altitude Azimuth Distance (km) Brightness Sun altitude
Rises 01:47:29 0° 171° (S) 5,141 - -28.3°
Reaches altitude 10° 01:53:27 10° 147° (SSE) 4,834 - -28.0°
Exits shadow 01:54:39 11° 142° (SE) 4,853 13.3 -28.0°
Maximum altitude 01:59:08 13° 123° (ESE) 5,133 13.5 -27.8°
Drops below altitude 10° 02:05:55 10° 100° (E) 6,008 14.1 -27.4°
Sets 02:15:34 0° 80° (E) 7,637 15.0 -26.9°
